Probability
0 0 0 0 0 0 0 0 0 0 0 0 0 0 0 0 0 0 0 0 0 0 0 0 0 0 0 0 0 0 0 0 0 0 0 0 0 0 0 0 0 0 0 0
0 0 0 0 0 0 0 0 0 0 0 0 0 0 0 0 0 0 0 0 0 0 0 0 0 0 0 0 0 0 0 0 0 0 0 0 0 0 0 0 0 0 0 0
0 0 0 0 0 0 0 0 0 0 0 0 0 0 0 0 0 0 0 0 0 0 0 0 0 0 0 0 0 0 0 0 0 0 0 0 0 0 0 0 0 0 0 0
0 0 0 0 0 0 0 0 0 0 0 0 0 0 0 0 0 0 0 0 0 0 0 0 0 0 0 0 0 0 0 0 0 0 0 0 0 0 0 0 0 0 0 0
0 0 0 0 0 0 0 0 0 0 0 0 0 0 0 0 0 0 0 0 0 0 0 0 0 0 0 0 0 0 0 0 0 0 0 0 0 0 0 0 0 0 0 0
0 0 0 0 0 0 0 0 0 0 0 0 0 0 0 0 0 0 0 0 0 0 0 0 0 0 0 0 0 0 0 0 0 0 0 0 0 0 0 0 0 0 0 0
0 0 0 0 0 0 0 0 0 0 0 0 0 0 0 0 0 0 0 0 0 0 0 0 0 0 0 0 0 0 0 0 0 0 0 0 0 0 0 0 0 0 0 0
0 0 0 0 0 0 0 0 0 0 0 0 0 0 0 0 0 0 0 0 0 0 0 0 0 0 0 0 0 0 0 0 0 0 0 0 0 0 0 0 0 0 0 0
0 0 0 0 0 0 0 0 0 0 0 0 0 0 0 0 0 0 0 0 0 0 0 0 0 0 0 0 0 0 0 0 0 0 0 0 0 0 0 0 0 0 0 0
0 0 0 0 0 0 0 0 0 0 0 0 0 0 0 0 0 0 0 0 0 0 0 0 0 0 0 0 0 0 0 0 0 0 0 0 0 0 0 0 0 0 0 0
0 0 0 0 0 0 0 0 0 0 0 0 0 0 0 0 0 0 0 0 0 0 0 0 0 0 0 0 0 0 0 0 0 0 0 0 0 0 0 0 0 0 0 0
0 0 0 0 0 0 0 0 0 0 0 0 0 0 0 0 0 0 0 0 0 0 0 0 0 0 0 0 0 0 0 0 0 0 0 0 0 0 0 0 0 0 0 0
0 0 0 0 0 0 0 0 0 0 0 0 0 0 0 0 0 0 0 0 0 0 0 0 0 0 0 0 0 0 0 0 0 0 0 0 0 0 0 0 0 0 0 0
0 0 0 0 0 0 0 0 0 0 0 0 0 0 0 0 0 0 0 0 0 0 0 0 0 0 0 0 0 0 0 0 0 0 0 0 0 0 0 0 0 0 0 0
0 0 0 0 0 0 0 0 0 0 0 0 0 0 0 0 0 0 0 0 0 0 0 0 0 0 0 0 0 0 0 0 0 0 0 0 0 0 0 0 0 0 0 0
0 0 0 0 0 0 0 0 0 0 0 0 0 0 0 0 0 0 0 0 0 0 0 0 0 0 0 0 0 0 0 0 0 0 0 0 0 0 0 0 0 0 0 0
0 0 0 0 0 0 0 0 0 0 0 0 0 0 0 0 0 0 0 0 0 0 0 0 0 0 0 0 0 0 0 0 0 0 0 0 0 0 0 0 0 0 0 0
0 0 0 0 0 0 0 0 0 0 0 0 0 0 0 0 0 0 0 0 0 0 0 0 0 0 0 0 0 0 0 0 0 0 0 0 0 0 0 0 0 0 0 0
0 0 0 0 0 0 0 0 0 0 0 0 0 0 0 0 0 0 0 0 0 0 0 0 0 0 0 0 0 0 0 0 0 0 0 0 0 0 0 0 0 0 0 0
0 0 0 0 0 0 0 0 0 0 0 0 0 0 0 0 0 0 0 0 0 0 0 0 0 0 0 0 0 0 0 0 0 0 0 0 0 0 0 0 0 0 0 0
0 0 0 0 0 0 0 0 0 0 0 0 0 0 0 0 0 0 0 0 0 0 0 0 0 0 0 0 0 0 0 0 0 0 0 0 0 0 0 0 0 0 0 0
0 0 0 0 0 0 0 0 0 0 0 0 0 0 0 0 0 0 0 0 0 0 0 0 0 0 0 0 0 0 0 0 0 0 0 0 0 0 0 0 0 0 0 0
0 0 0 0 0 0 0 0 0 0 0 0 0 0 0 0 0 0 0 0 0 0 0 0 0 0 0 0 0 0 0 0 0 0 0 0 0 0 0 0 0 0 0 0
0 0 0 0 0 0 0 0 0 0 0 0 0 0 0 0 0 0 0 0 0 0 0 0 0 0 0 0 0 0 0 0 0 0 0 0 0 0 0 0 0 0 0 0
0 0 0 0 0 0 0 0 0 0 0 0 0 0 0 0 0 0 0 0 0 0 0 0 0 0 0 0 0 0 0 0 0 0 0 0 0 0 0 0 0 0 0 0
0 0 0 0 0 0 0 0 0 0 0 0 0 0 0 0 0 0 0 0 0 0 0 0 0 0 0 0 0 0 0 0 0 0 0 0 0 0 0 0 0 0 0 0
0 0 0 0 0 0 0 0 0 0 0 0 0 0 0 0 0 0 0 0 0 0 0 0 0 0 0 0 0 0 0 0 0 0 0 0 0 0 0 0 0 0 0 0
Wind_Speed
5 2 2 4 7 10 10 9 7 7 8 4 4 6 7 8 8 8 9 8 7 6 5 5 4 3 2 1 1 1 2 3 5 5 5 5 6 6 7 8 9 9 9 9
4 2 2 4 6 8 10 11 11 11 11 4 2 3 5 6 8 9 9 8 7 6 5 4 3 2 1 1 1 1 3 4 5 5 6 6 6 7 8 8 8 9 9 9
3 2 1 7 10 12 10 9 8 10 7 1 2 3 3 4 6 8 8 8 7 6 5 4 3 2 1 1 2 2 4 5 5 6 6 6 7 7 8 8 9 9 9 9
2 3 8 6 1 3 6 8 8 6 3 4 4 4 4 4 6 7 8 7 6 5 4 3 2 1 1 1 2 4 5 6 6 6 6 7 7 8 9 8 8 8 9 9
3 4 8 5 4 4 4 5 4 4 3 6 8 5 2 3 6 7 7 7 6 5 4 2 1 1 1 3 4 5 6 6 6 6 7 7 8 9 8 8 8 8 9 9
4 4 7 2 2 2 3 5 1 3 6 8 7 3 3 5 7 8 8 6 5 4 2 1 1 1 2 4 5 6 6 6 6 6 7 8 9 9 8 8 9 9 9 8
6 6 8 2 4 5 5 5 2 4 6 8 6 4 6 8 7 7 7 6 4 3 1 1 1 1 3 5 6 6 6 6 6 7 8 9 8 8 8 8 9 9 9 8
6 7 9 6 7 7 4 3 3 4 5 6 6 7 7 7 7 6 5 4 3 1 1 1 2 3 5 6 6 6 6 7 7 8 8 8 8 8 8 8 9 9 9 9
8 8 2 7 5 3 4 4 4 4 5 8 8 7 7 6 6 5 4 3 2 1 2 3 3 4 6 6 6 6 7 8 8 8 7 7 8 8 8 7 7 8 8 9
2 3 5 5 4 3 3 3 4 5 6 7 7 7 7 5 5 4 3 2 1 1 3 4 4 5 6 6 6 7 8 8 7 8 8 7 6 6 6 6 7 8 9 10
4 2 4 4 5 5 4 5 6 6 6 6 7 7 6 5 4 3 2 1 1 2 4 5 6 6 6 6 6 7 8 8 7 7 8 8 7 6 8 8 10 13 10 9
5 4 6 5 6 7 7 6 7 7 6 6 6 6 5 4 3 2 1 1 2 4 5 6 6 7 7 7 7 7 7 7 6 6 6 7 8 9 13 16 23 24 24 22
2 3 4 4 6 6 6 6 6 6 7 7 5 5 4 3 2 1 1 2 4 5 5 6 7 8 8 7 7 7 8 8 6 7 7 8 8 9 12 13 18 22 24 25
4 5 3 3 4 6 7 7 7 7 6 6 5 4 3 2 1 1 3 3 4 5 6 7 8 8 7 7 7 7 8 10 10 7 7 8 8 8 10 12 13 10 13 21
4 3 5 6 7 7 7 7 7 6 6 5 4 4 3 1 2 3 4 4 5 6 7 7 8 9 7 7 8 8 8 7 7 7 7 8 9 9 10 11 12 12 10 12
6 5 6 8 8 8 7 7 7 6 5 4 3 2 2 1 3 4 5 5 6 7 7 7 9 9 8 8 8 7 7 15 15 10 8 9 9 10 10 11 11 11 11 10
8 7 7 8 8 7 6 6 5 5 4 3 2 1 0 2 4 5 5 5 5 7 8 8 9 9 8 7 7 7 7 10 17 12 9 9 10 10 10 10 11 11 10 13
6 6 7 8 8 7 7 6 5 5 4 3 2 1 2 4 5 6 6 6 7 8 9 9 9 8 7 7 7 7 7 7 7 9 10 10 11 10 10 10 11 12 11 12
6 7 7 8 8 7 6 5 5 4 3 2 1 2 4 5 6 7 7 7 8 11 10 8 14 11 8 9 12 7 7 8 9 10 10 15 14 10 10 10 11 11 11 11
8 8 9 9 8 7 6 4 3 2 1 1 1 3 5 6 6 6 7 8 8 9 9 10 10 8 8 9 14 7 7 9 11 11 11 10 11 10 10 10 11 11 11 11
9 9 9 8 7 5 4 3 2 1 1 1 3 5 6 7 7 7 7 10 9 9 9 14 9 6 7 10 15 8 8 10 11 11 11 11 10 11 11 11 11 11 11 11
7 7 7 6 5 4 2 2 1 1 2 3 5 6 7 8 8 8 9 9 10 13 9 6 5 11 16 18 9 8 9 11 11 10 10 10 10 10 11 11 11 11 11 10
6 6 5 5 4 2 1 0 2 3 4 5 6 7 8 8 6 7 10 7 6 13 10 7 13 22 25 14 8 8 9 10 10 10 10 10 10 10 11 12 11 11 10 11
6 5 4 3 2 1 2 3 4 4 5 6 7 8 8 7 7 7 8 13 16 18 10 13 23 25 24 9 7 8 8 9 9 9 10 10 10 10 10 11 11 10 11 12
4 3 2 1 1 2 4 4 4 5 6 5 7 8 7 6 7 7 7 8 15 18 10 14 22 24 14 7 8 8 8 9 11 11 10 10 10 10 10 11 11 11 11 11
2 1 1 2 3 3 3 3 3 4 5 6 6 5 5 5 6 7 7 9 11 16 12 8 9 12 8 8 9 9 9 10 11 10 10 11 11 11 11 11 12 11 11 11
1 1 1 2 3 3 3 3 4 5 5 6 7 6 6 6 6 8 9 9 9 9 8 8 7 8 8 9 9 9 9 9 9 10 10 10 10 10 11 12 11 11 11 12
Wind_Direction
274 92 136 206 203 199 212 228 241 255 269 273 194 181 174 162 156 150 148 148 147 147 141 138 138 137 132 138 176 240 278 283 281 283 288 291 292 291 290 288 288 285 284 283
271 200 211 258 248 229 222 230 245 264 272 291 97 122 143 153 155 155 154 151 145 141 139 142 143 139 132 196 250 266 276 277 280 283 284 284 285 285 285 284 284 284 283 283
249 209 220 249 228 227 228 223 221 242 253 98 112 125 145 149 149 153 146 141 142 143 140 136 131 127 178 254 278 281 277 277 279 279 281 282 284 288 286 285 284 284 283 283
224 186 235 235 160 203 227 241 228 229 193 154 129 101 83 113 137 138 133 134 136 131 123 119 118 139 235 278 283 279 278 278 279 282 284 285 286 285 285 282 283 284 286 286
190 226 264 245 194 175 196 256 232 219 155 110 100 81 55 79 108 119 119 119 118 117 119 125 151 210 265 282 281 281 282 283 286 291 291 290 287 284 283 285 286 285 285 287
184 207 238 234 130 110 115 265 230 147 135 133 127 155 202 129 103 100 101 103 106 107 111 138 230 268 287 281 283 283 283 284 290 291 288 287 284 284 285 285 285 286 286 285
208 224 251 175 151 128 170 233 131 129 142 150 166 172 134 118 109 109 109 112 116 125 151 219 266 291 279 279 277 277 283 288 289 286 284 283 283 283 285 285 286 286 288 287
193 221 241 160 156 187 193 146 141 141 145 139 122 112 115 117 117 118 120 125 128 138 230 273 286 282 277 275 275 282 287 287 285 283 284 288 286 286 285 288 291 291 292 292
195 208 183 161 167 141 128 144 148 146 136 132 135 136 132 130 131 133 135 137 139 187 273 281 279 273 275 277 284 289 286 283 283 285 284 283 284 288 290 288 287 290 290 292
241 186 161 157 126 140 144 139 131 129 131 135 141 142 142 141 141 143 145 153 171 269 280 282 283 281 277 283 288 288 286 286 287 289 288 285 282 282 285 286 287 288 290 292
238 185 138 187 188 168 145 124 119 117 124 136 137 141 142 143 147 149 148 160 229 266 274 279 284 284 284 287 290 288 285 286 287 286 287 289 284 277 284 274 282 293 291 289
211 190 177 191 176 160 153 153 146 135 127 124 131 135 133 137 137 137 159 232 268 272 275 282 287 287 287 286 286 286 288 287 286 285 286 286 289 290 285 286 295 296 296 296
144 93 99 115 133 141 148 146 139 137 137 132 125 125 128 130 131 142 240 270 272 275 278 284 286 286 286 288 288 286 284 286 286 284 287 287 288 293 298 297 293 294 297 299
123 114 123 143 145 134 127 125 120 118 121 124 123 121 120 124 147 244 264 271 278 282 283 283 283 284 289 295 294 288 286 289 292 284 283 285 286 288 291 297 301 295 294 298
169 162 154 137 127 122 123 126 127 129 126 120 118 123 133 169 240 262 272 279 281 279 279 281 285 287 293 293 290 287 288 286 285 282 281 283 286 288 289 289 291 295 296 298
152 131 128 137 141 139 140 142 143 143 137 131 132 139 159 219 261 271 273 273 277 280 283 284 283 284 287 287 286 284 282 289 295 292 288 289 288 288 288 289 290 292 295 298
146 157 161 160 157 152 148 145 139 134 129 130 134 133 217 272 275 276 279 284 282 278 278 279 279 282 282 283 284 284 282 287 293 294 287 287 287 286 286 287 289 291 291 294
162 157 156 154 149 141 133 124 117 117 123 127 126 200 260 270 277 284 288 291 288 284 279 275 276 281 280 282 282 280 281 281 282 284 286 287 288 285 287 288 290 291 292 296
119 118 116 116 119 120 118 116 115 116 124 139 191 252 267 273 275 278 284 287 287 287 284 274 287 289 281 281 291 282 280 284 287 286 286 290 293 288 288 288 290 291 294 295
101 101 100 99 99 107 112 113 115 121 134 155 248 271 276 276 278 282 284 277 269 267 274 282 285 279 279 282 293 284 281 285 288 290 290 288 289 289 290 291 291 292 293 293
105 105 105 104 102 102 108 113 117 140 222 246 256 265 271 277 279 278 280 283 279 272 278 290 291 282 286 290 296 288 286 288 289 289 290 291 291 292 293 293 293 294 294 294
110 110 109 109 109 106 103 105 127 241 269 270 267 268 274 279 279 275 264 268 281 288 291 282 281 291 297 300 293 289 288 289 290 289 289 289 290 292 293 293 293 293 294 293
107 107 106 106 108 108 88 261 247 252 259 263 267 270 271 272 274 280 286 278 279 293 297 284 293 300 303 302 291 288 288 289 290 290 291 291 290 290 291 292 292 293 293 292
103 101 103 101 96 97 270 265 257 253 255 261 262 263 266 274 275 261 265 288 297 299 294 293 301 303 306 299 289 287 286 287 287 287 288 289 290 290 291 291 292 292 292 292
108 114 125 144 210 243 253 267 275 273 268 265 265 263 258 255 268 279 280 284 293 300 295 297 301 304 303 289 286 285 285 284 287 291 290 293 293 292 291 291 291 292 293 292
127 160 204 219 230 246 257 264 268 272 277 281 279 274 272 271 275 282 286 286 287 295 296 292 292 295 289 285 286 286 286 291 294 291 288 289 290 290 291 291 291 292 292 291
164 226 251 267 263 252 252 260 268 274 277 281 286 286 285 286 286 287 289 290 291 291 290 290 289 288 289 289 288 287 287 287 287 287 288 289 289 289 290 290 291 291 291 290